Regional Weather Roundup
Issued by NWS

Home | Current Version | Previous Version | Text Only | Print | Product List | Glossary On
Versions: 1 2 3 4 5 6 7 8 9 10 11 12 13 14 15 16 17 18 19 20 21 22 23 24 25 26 27 28 29 30 31 32 33 34 35 36 37 38 39 40 41 42 43 44 45 46 47 48 49 50
000
ASUS44 KMEG 041910
RWRTN
TENNESSEE HOURLY STATE WEATHER ROUNDUP
NATIONAL WEATHER SERVICE MEMPHIS TN
200 PM CDT FRI SEP 04 2015

TNZ002-004-019-021-049-052-054-088>092-042000-
WEST TENNESSEE

CITY           SKY/WX    TMP DP  RH WIND       PRES   REMARKS
MEMPHIS INTL   PTSUNNY   92  70  48 SE13G18   30.00F HX  97
NWS MEMPHIS      N/A     92 N/A N/A MISG        N/A
JACKSON        SUNNY     92  72  51 NE5       30.01F HX  99
DYERSBURG      SUNNY     91  70  49 CALM      30.01F HX  97
UNION CITY     SUNNY     91  70  49 VRB5      30.00F HX  97
PARIS          SUNNY     90  68  48 VRB6      30.03F HX  93
LEXINGTON      MOSUNNY   93  64  38 VRB5      30.01F HX  95
$$

TNZ008-025-027-028-033-062-065-066-042000-
NORTH MIDDLE TENNESSEE

CITY           SKY/WX    TMP DP  RH WIND       PRES   REMARKS
NASHVILLE      PTSUNNY   95  62  33 VRB6      30.03F HX  96
CLARKSVILLE    SUNNY     93  63  36 VRB3      30.02F HX  94
SMYRNA         MOSUNNY   32  32 100 NE6       30.03F WCI  26
COOKEVILLE     SUNNY     91  68  46 VRB5      30.05F HX  95
CROSSVILLE     MOSUNNY   88  62  41 N8        30.11F
$$

TNZ061-075-076-078-094-096-097-042000-
SOUTH MIDDLE TENNESSEE

CITY           SKY/WX    TMP DP  RH WIND       PRES   REMARKS
FAYETTEVILLE   SUNNY     88  64  45 CALM      30.04F
TULLAHOMA      SUNNY     90  64  43 CALM      30.06S HX  91
WINCHESTER     MOSUNNY   90  66  45 CALM      30.04F HX  92
MCMINNVILLE    SUNNY     90  72  55 NE7       30.06F HX  96
COLUMBIA       SUNNY     93  66  40 E7        30.01F HX  96
SHELBYVILLE    SUNNY     93  68  43 E7        30.05S HX  97
$$

TNZ017-018-042-046-047-042000-
NORTHEAST TENNESSEE

CITY           SKY/WX    TMP DP  RH WIND       PRES   REMARKS
TRI CITIES     MOSUNNY   89  62  40 VRB5      30.07F
ELIZABETHTON   PTCLDY    86  61  42 N9        30.06F
$$

TNZ012-013-036-069-073-074-042000-
CENTRAL EAST TENNESSEE

CITY           SKY/WX    TMP DP  RH WIND       PRES   REMARKS
KNOXVILLE      MOSUNNY   90  63  40 NE8       30.03F HX  91
OAK RIDGE      SUNNY     91  66  43 CALM      30.05F HX  93
GATLINBURG     CLEAR     90  61  37 NE8       30.03S
MORRISTOWN     CLEAR     88  66  48 VRB3      30.07F HX  90
$$

TNZ083-085-099-042000-
SOUTHEAST TENNESSEE

CITY           SKY/WX    TMP DP  RH WIND       PRES   REMARKS
CHATTANOOGA    MOSUNNY   90  67  46 NE8       30.02F HX  93
$$

SKY/WX REPORTED AS FAIR MEANS FEW OR NO CLOUDS BELOW
12 THOUSAND FEET.



USA.gov is the U.S. government's official web portal to all federal, state and local government web resources and services.